Vertical_Velocity
0 -0 -0 -1 -2 -2 -2 -1 -1 -1 -1 -1 -2 -2 -2 -1 -2 -2 -1 -1 -2 -4 -4 -4 -4 -5 -5 -4 -4 -4 -4 -3 -2 -1 -1 -0 -0 -0 -0 0 0 0 -0 -0 -1 -1 -1 -1 -2 -4 -4 -4 -4 -5 -5 -6 -4 -3 -2 -3 -3 -4 -4 -3 0 4 6 5 3
-0 0 1 0 -0 -1 -0 -0 0 1 1 0 0 -0 -1 -1 -2 -2 -1 -0 -1 -2 -3 -4 -4 -4 -4 -4 -4 -4 -4 -4 -3 -2 -1 -0 -0 -0 -0 -0 0 0 -0 -0 -1 -1 -1 -2 -3 -4 -4 -4 -3 -2 -2 -3 -5 -5 -4 -2 -2 -4 -5 -3 -1 -0 -0 1 0
-0 0 1 1 1 0 -0 -0 0 1 1 1 1 1 0 -0 -1 -1 -1 -0 -0 -0 -1 -3 -4 -4 -4 -4 -3 -3 -3 -4 -4 -3 -2 -1 -0 -0 -0 -0 -0 0 0 -0 -1 -1 -2 -3 -4 -4 -4 -4 -2 -0 0 -2 -5 -4 -2 -1 -6 -7 -5 -1 -1 -2 -3 -2 -0
1 1 1 1 1 0 -0 -0 -0 0 1 1 2 2 2 1 0 -0 -0 1 1 1 0 -1 -2 -3 -3 -2 -2 -2 -2 -2 -3 -3 -2 -1 -1 -0 0 -0 -0 0 0 0 -0 -1 -2 -3 -4 -4 -3 -2 -0 1 1 -1 -3 -1 -0 -4 -10 -8 -4 1 -1 -3 -4 -2 -1
1 1 1 1 1 1 1 1 0 0 0 1 2 2 2 2 1 1 1 1 1 1 1 -0 -1 -1 -1 -0 -0 -1 -1 -1 -2 -2 -2 -2 -1 -0 -0 0 -0 -0 -1 -0 0 -0 -1 -3 -4 -4 -3 -2 0 1 1 -0 -0 0 -1 -7 -9 -6 -1 2 0 -2 -3 -2 -2
-1 -0 0 1 1 1 1 1 1 1 1 1 1 2 2 2 2 1 1 1 1 2 2 1 1 1 1 1 1 1 0 -0 -1 -1 -2 -2 -1 -1 -0 0 -0 -0 -0 -0 -0 -0 -1 -3 -4 -4 -3 -1 1 2 2 1 2 0 -2 -6 -5 -3 0 4 1 -2 -4 -1 2
-2 -1 -1 -0 0 1 1 1 2 2 2 1 2 2 2 3 2 2 2 2 2 2 1 1 1 1 1 2 1 1 0 -0 -0 -1 -1 -1 -1 -0 -0 -0 -0 0 0 -0 -0 -0 -1 -2 -3 -3 -3 -1 1 2 2 3 2 0 -2 -3 -3 -2 1 5 0 -4 -5 2 7
-0 -0 -0 -0 0 0 1 1 1 1 1 1 2 2 2 3 2 2 2 3 2 2 1 1 1 1 1 2 2 1 0 -0 -0 -0 -0 -0 -1 -0 -0 0 1 1 1 1 0 -0 -1 -2 -2 -2 -2 -1 1 2 2 3 2 -0 -2 -2 -3 -1 2 6 -0 -4 -4 2 7
-0 0 0 1 1 1 1 1 1 1 1 1 2 2 2 3 3 2 2 2 2 1 1 1 1 2 2 3 2 2 1 -0 -0 -1 -0 -0 -0 -0 -0 0 1 1 1 1 1 -0 -1 -2 -2 -2 -2 -1 0 1 2 3 2 1 -1 -2 -2 0 3 6 1 -2 -4 -1 4
-1 -1 -1 -0 -0 -0 0 1 1 2 2 2 2 3 3 4 3 2 1 1 1 1 1 1 1 1 2 3 3 2 1 0 -0 -1 -1 -0 -0 -0 -0 0 1 1 1 0 0 -0 -1 -2 -2 -2 -2 -1 -0 0 1 3 3 1 -1 -2 -1 1 3 5 3 1 -1 -1 -0
-1 -1 -1 -1 -1 -1 -0 -0 1 1 2 2 2 2 3 4 4 3 2 1 1 1 1 1 1 1 2 2 2 2 1 1 -0 -1 -1 -1 -0 0 0 0 0 0 -0 -1 -1 -2 -2 -2 -2 -2 -2 -2 -1 0 2 3 3 1 -1 -2 -1 0 2 4 4 4 2 -2 -7
-1 -1 -1 -1 -1 -1 -1 -1 -0 0 1 1 1 2 3 3 3 3 2 2 1 1 1 1 1 1 1 1 1 1 1 1 -0 -1 -1 -1 -1 -0 1 1 1 -0 -1 -2 -2 -2 -2 -2 -3 -3 -2 -2 -1 0 2 3 2 0 -1 -3 -3 -1 1 4 5 5 -0 -11 -17
-1 -1 -1 -1 -1 -1 -1 -1 -0 0 1 1 1 1 2 2 3 3 2 1 1 1 1 2 2 2 1 1 1 1 0 -0 -0 -1 -1 -1 -1 -1 -0 1 0 -0 -1 -2 -2 -2 -2 -3 -3 -3 -3 -2 -1 1 2 2 1 -1 -3 -6 -6 -3 1 7 8 5 -5 -21 -23
-1 -1 -1 -1 -1 -1 -1 -1 -1 -0 0 0 0 -0 0 1 2 2 2 1 1 1 1 1 2 2 2 0 0 -0 -0 -1 -1 -1 -1 -1 -1 -1 -0 -0 -1 -1 -2 -2 -2 -2 -2 -3 -3 -3 -3 -2 -1 1 2 2 1 -1 -4 -8 -8 -4 2 11 12 7 -3 -15 -10
-0 -0 -0 -0 -1 -1 -1 -1 -1 -1 -0 -0 -1 -1 -0 0 1 2 2 1 1 1 1 1 2 2 2 1 0 -0 -0 -1 -2 -2 -1 -0 -0 -0 -0 -1 -1 -2 -2 -2 -2 -3 -3 -3 -2 -2 -2 -2 -1 -0 1 2 2 -0 -2 -5 -5 -3 3 12 15 12 6 1 7
-0 -0 -0 -0 -0 -1 -1 -1 -2 -1 -1 -1 -1 -1 -1 -1 0 1 1 1 1 1 1 1 1 1 1 1 1 1 -0 -1 -2 -2 -2 -1 -0 -0 -1 -1 -2 -3 -3 -3 -3 -3 -4 -4 -2 -0 -0 -1 -2 -2 -1 1 1 1 1 -0 -0 1 4 10 12 11 8 6 9
-0 -0 -1 -0 -0 -0 -1 -1 -1 -1 -1 -1 -1 -1 -1 -2 -1 -0 0 0 -0 -0 0 1 1 1 1 1 1 1 0 -0 -1 -2 -2 -1 -1 -1 -1 -2 -3 -4 -4 -4 -4 -4 -5 -5 -3 0 2 2 -1 -2 -2 -1 1 2 3 3 4 4 6 8 7 4 1 3 4
-1 -1 -1 -0 -0 -0 -0 -0 -1 -1 -1 -1 -1 -1 -2 -2 -2 -1 -0 0 -0 -0 -0 0 0 1 0 -0 -0 0 0 0 -0 -1 -1 -1 -1 -1 -1 -2 -4 -4 -5 -4 -4 -4 -5 -6 -5 -1 2 5 3 1 -1 -2 -0 1 3 5 6 6 6 6 0 -4 -5 0 3
-2 -1 -1 -1 -0 -0 -0 -1 -1 -1 -1 -2 -1 -1 -2 -2 -2 -1 -1 -0 0 -0 -0 -0 -0 -0 -0 0 0 0 1 1 0 -0 -1 -1 -0 -1 -1 -2 -4 -5 -5 -5 -4 -4 -5 -6 -6 -4 -0 4 6 6 4 1 0 1 2 5 6 8 8 5 -2 -6 -5 -0 4
-2 -2 -2 -1 -1 -1 -1 -1 -1 -1 -2 -2 -2 -2 -2 -1 -1 -1 -1 -1 -1 -0 -0 -1 -1 -1 -0 0 1 2 2 1 1 1 0 -0 -0 -0 -1 -2 -4 -5 -6 -6 -4 -4 -5 -6 -6 -6 -4 -0 3 6 7 6 5 4 5 6 8 10 10 6 -1 -2 1 6 11
-2 -2 -2 -1 -1 -1 -1 -1 -1 -1 -1 -1 -1 -1 -1 -1 -1 -1 -1 -1 -1 -1 -1 -1 -1 -1 -1 0 2 3 3 3 3 2 1 1 1 0 -1 -2 -3 -5 -7 -7 -4 -4 -4 -5 -6 -6 -6 -4 -2 1 4 7 8 9 10 11 10 10 8 5 1 1 5 12 18
-2 -2 -2 -1 -1 -1 -1 -1 -1 -1 -0 -0 0 -0 -0 -1 -0 -0 -0 -1 -1 -2 -2 -2 -2 -1 -1 0 2 3 4 4 5 4 3 2 2 1 1 0 -2 -5 -7 -8 -5 -3 -2 -3 -5 -6 -7 -6 -5 -3 1 5 8 10 12 13 10 8 6 4 0 1 3 8 13
-3 -3 -3 -2 -1 -1 -1 -1 -0 0 1 1 1 1 0 -0 -0 -0 0 -0 -1 -2 -3 -4 -3 -2 -1 1 2 2 3 5 6 6 5 4 3 2 3 2 -0 -4 -7 -9 -8 -5 -1 0 -2 -4 -6 -6 -6 -4 -1 3 6 9 10 10 9 6 4 1 0 0 1 2 5
-4 -4 -4 -3 -3 -2 -2 -1 -0 1 1 2 1 1 1 0 -0 0 1 1 -0 -2 -4 -5 -5 -3 -1 1 1 2 2 3 5 6 6 5 4 4 4 4 1 -2 -5 -8 -10 -7 -3 2 1 -1 -3 -4 -4 -4 -2 -0 4 6 8 8 7 6 3 -0 -1 -1 -0 -1 1
-4 -4 -4 -4 -4 -3 -3 -2 -1 0 1 1 1 1 1 1 -0 -0 1 1 -0 -2 -4 -6 -6 -4 -2 0 1 1 2 3 3 4 5 5 5 5 4 3 2 0 -2 -6 -9 -9 -6 2 3 2 0 -1 -1 -1 -1 -1 2 4 6 7 7 6 3 -0 -2 -2 -3 -2 -2
-4 -4 -4 -4 -4 -4 -4 -3 -1 -1 -0 0 1 1 1 1 0 0 0 1 -0 -2 -5 -7 -7 -5 -3 -1 0 1 2 2 3 3 4 4 4 4 4 3 3 3 1 -4 -10 -11 -8 1 4 4 2 1 1 1 2 2 3 5 7 9 9 8 6 3 1 0 0 1 2
-4 -4 -4 -4 -4 -4 -4 -3 -2 -1 -1 -1 -1 -0 0 0 0 0 0 0 -0 -2 -4 -6 -6 -6 -4 -1 -0 0 1 2 2 3 3 3 3 4 3 3 4 4 3 -2 -10 -11 -7 1 3 3 2 2 2 3 4 5 6 7 8 10 12 12 11 8 7 8 9 10 10
-4 -4 -4 -4 -4 -4 -4 -4 -3 -3 -3 -2 -2 -1 -1 -0 1 1 1 1 0 -1 -2 -5 -6 -5 -4 -2 -1 -0 0 1 1 1 2 2 3 3 4 5 4 3 2 0 -6 -7 -5 -1 -1 -1 0 2 3 3 4 5 6 8 9 10 12 13 13 13 13 14 14 14 12
-3 -3 -3 -3 -3 -3 -3 -3 -3 -4 -4 -3 -3 -2 -1 0 1 2 2 2 1 0 -2 -5 -6 -5 -4 -3 -3 -2 -0 1 1 1 1 1 2 3 6 10 7 3 -0 -1 -4 -5 -6 -6 -6 -5 -2 1 3 4 4 5 6 7 8 9 10 11 11 12 12 13 12 11 9
-2 -2 -2 -2 -2 -2 -2 -3 -3 -3 -3 -3 -2 -2 -1 -0 1 2 2 2 2 0 -2 -4 -5 -5 -4 -4 -4 -2 -1 0 0 0 0 1 0 2 6 11 7 2 -2 -5 -6 -7 -8 -9 -8 -6 -3 -0 3 4 5 5 6 6 6 7 8 8 8 8 9 8 8 7 6
-2 -2 -2 -1 -1 -1 -2 -2 -2 -2 -2 -3 -2 -2 -1 -1 -0 1 1 2 2 0 -1 -1 -2 -2 -3 -4 -3 -2 -1 -0 0 0 -0 0 -0 1 3 6 6 4 -1 -5 -5 -4 -5 -7 -7 -5 -3 -1 1 3 5 6 6 6 6 7 7 7 6 5 5 5 6 7 7
-1 -2 -2 -1 -1 -1 -2 -2 -2 -2 -2 -2 -3 -2 -2 -1 -0 1 2 2 2 1 0 -0 -0 -1 -2 -2 -2 -1 -1 -0 0 0 -0 -1 -0 0 1 2 6 6 4 1 3 2 -1 -3 -5 -5 -4 -2 -0 1 3 4 6 7 7 7 8 7 6 5 4 4 6 8 9
-1 -1 -2 -2 -2 -2 -2 -2 -2 -2 -2 -2 -2 -2 -2 -1 0 2 3 3 2 2 1 -1 -1 -1 -2 -3 -3 -2 -1 -0 1 0 -0 -1 -1 0 1 2 4 5 6 7 8 4 -1 -4 -5 -5 -5 -4 -2 -1 1 2 4 5 6 7 7 7 6 5 4 5 6 8 10
-1 -1 -2 -2 -3 -3 -3 -3 -3 -3 -3 -2 -2 -1 -1 -1 -0 1 2 2 3 2 2 -0 -1 -1 -2 -3 -3 -2 -2 -1 0 1 1 -1 -0 1 3 3 4 4 6 8 5 1 -3 -5 -5 -6 -5 -5 -4 -2 -1 -0 1 3 4 5 6 6 5 4 4 4 5 7 10
-2 -2 -2 -3 -3 -3 -3 -3 -4 -4 -3 -3 -2 -1 -1 -0 -0 0 1 2 3 3 3 1 1 1 -0 -1 -1 -1 -1 -2 -0 1 1 -0 0 2 4 5 4 4 5 5 3 2 2 -2 -6 -7 -8 -7 -5 -4 -2 -1 -0 0 2 3 4 4 4 4 3 3 4 5 7
-2 -3 -3 -3 -3 -4 -4 -4 -4 -4 -4 -4 -4 -3 -2 -1 -0 -0 0 1 3 4 4 3 2 2 2 1 0 -0 -1 -2 -1 -0 0 0 0 1 3 5 5 5 4 3 3 4 5 4 -3 -8 -10 -9 -7 -5 -4 -3 -2 -1 -1 0 1 2 2 2 3 3 3 4 5
-3 -3 -4 -4 -4 -4 -5 -5 -5 -4 -4 -4 -4 -4 -4 -2 -1 -1 -0 -0 2 3 3 3 3 2 2 2 2 0 -2 -3 -2 -1 -0 -0 0 1 2 4 6 5 4 4 4 3 4 7 1 -5 -9 -9 -8 -6 -5 -4 -3 -3 -2 -2 -1 -1 -1 -0 0 1 1 2 3
-3 -4 -4 -4 -5 -5 -5 -4 -4 -5 -5 -5 -4 -4 -3 -2 -2 -2 -2 -2 -1 0 1 2 2 2 2 2 2 0 -2 -3 -2 -2 -1 -1 -0 -0 1 3 5 6 5 5 4 2 2 6 4 -0 -4 -7 -7 -6 -6 -5 -4 -4 -3 -3 -3 -3 -3 -2 -2 -1 -1 -0 0
-3 -4 -4 -5 -5 -5 -4 -4 -4 -4 -5 -5 -5 -4 -4 -4 -4 -4 -4 -3 -2 -2 -1 -0 0 1 1 2 2 0 -2 -2 -2 -2 -1 -1 -1 -0 0 1 3 5 6 7 6 3 1 2 4 2 -1 -5 -5 -6 -5 -5 -4 -5 -5 -4 -4 -4 -4 -4 -3 -2 -2 -2 -1
-3 -3 -4 -4 -5 -4 -4 -3 -2 -3 -4 -5 -5 -5 -5 -5 -5 -4 -4 -3 -3 -3 -2 -2 -1 -0 0 1 0 -0 -1 -2 -2 -2 -1 -1 -0 0 1 0 1 3 5 8 8 5 2 2 4 3 -1 -5 -5 -5 -5 -4 -4 -5 -5 -6 -5 -5 -5 -4 -3 -3 -2 -2 -1
-3 -3 -3 -3 -4 -4 -4 -2 -2 -2 -3 -5 -6 -6 -5 -4 -4 -4 -4 -3 -3 -3 -3 -3 -3 -2 -1 -0 -0 -1 -1 -1 -1 -1 -1 -1 -0 1 1 1 0 1 3 6 8 8 6 4 6 4 -0 -5 -5 -5 -4 -4 -4 -4 -5 -6 -6 -6 -6 -5 -4 -3 -2 -1 -1
Height
3007 3005 3002 3000 2998 2996 2995 2993 2991 2990 2988 2986 2984 2982 2981 2979 2978 2976 2975 2974 2972 2971 2969 2968 2967 2966 2965 2964 2963 2961 2961 2960 2959 2958 2958 2957 2956 2956 2955 2954 2954 2953 2952 2952 2951 2951 2951 2951 2950 2950 2950 2951 2951 2951 2952 2953 2953 2954 2955 2956 2957 2959 2961 2963 2964 2966 2967 2969 2970
3006 3003 3001 2999 2997 2995 2993 2991 2990 2988 2986 2984 2982 2981 2979 2977 2976 2974 2973 2972 2970 2969 2967 2966 2965 2964 2962 2961 2960 2959 2958 2957 2956 2956 2955 2954 2953 2953 2952 2951 2951 2950 2949 2949 2948 2948 2947 2947 2946 2946 2946 2947 2947 2948 2948 2949 2950 2950 2951 2952 2953 2955 2957 2959 2960 2961 2963 2964 2966
3004 3001 3000 2997 2995 2993 2991 2990 2988 2986 2984 2983 2981 2979 2977 2975 2974 2972 2971 2970 2968 2967 2965 2964 2962 2961 2960 2959 2958 2957 2956 2954 2953 2952 2952 2951 2950 2950 2949 2948 2948 2947 2946 2946 2945 2944 2943 2943 2943 2942 2942 2943 2943 2944 2944 2945 2946 2946 2947 2948 2949 2951 2953 2955 2956 2958 2959 2960 2962
3002 3000 2997 2996 2994 2991 2990 2988 2986 2984 2982 2981 2979 2977 2975 2973 2971 2970 2969 2967 2966 2965 2963 2961 2960 2959 2958 2956 2956 2954 2953 2951 2950 2949 2948 2948 2947 2947 2946 2945 2945 2944 2943 2942 2941 2941 2940 2939 2938 2938 2938 2938 2939 2940 2941 2941 2942 2943 2943 2944 2945 2947 2949 2950 2952 2954 2956 2956 2957
3000 2998 2996 2994 2992 2990 2988 2986 2984 2982 2981 2979 2977 2976 2973 2971 2970 2968 2966 2965 2964 2962 2961 2959 2958 2957 2956 2954 2953 2951 2950 2949 2947 2946 2945 2945 2944 2944 2943 2942 2941 2941 2940 2939 2938 2937 2936 2936 2935 2934 2934 2935 2935 2936 2937 2938 2939 2939 2939 2940 2941 2943 2945 2946 2948 2950 2952 2953 2954
2998 2996 2994 2992 2990 2988 2986 2984 2982 2981 2979 2977 2975 2973 2971 2970 2968 2966 2964 2963 2961 2960 2959 2957 2956 2955 2953 2952 2951 2949 2948 2946 2945 2944 2943 2942 2941 2941 2940 2939 2938 2938 2937 2936 2935 2934 2933 2932 2931 2931 2930 2931 2931 2932 2933 2935 2935 2935 2936 2936 2938 2940 2941 2943 2945 2946 2948 2949 2950
2996 2993 2991 2990 2988 2986 2984 2982 2981 2979 2977 2975 2973 2971 2970 2968 2966 2964 2962 2961 2959 2958 2956 2955 2954 2952 2951 2950 2948 2946 2945 2944 2942 2941 2940 2940 2939 2938 2937 2936 2936 2935 2934 2933 2932 2931 2930 2929 2928 2928 2927 2927 2928 2929 2930 2931 2931 2932 2932 2933 2934 2936 2937 2939 2941 2943 2944 2945 2945
2993 2991 2989 2987 2985 2984 2982 2980 2978 2976 2975 2973 2971 2969 2967 2966 2964 2962 2961 2959 2957 2956 2954 2953 2951 2950 2949 2947 2946 2944 2942 2941 2940 2939 2938 2937 2936 2936 2935 2934 2933 2932 2931 2931 2930 2929 2928 2926 2926 2925 2925 2925 2925 2926 2927 2928 2928 2929 2929 2930 2931 2932 2934 2936 2937 2939 2940 2941 2941
2991 2989 2987 2985 2983 2981 2980 2978 2976 2974 2972 2971 2969 2967 2965 2964 2961 2960 2958 2956 2955 2953 2952 2950 2949 2948 2946 2945 2943 2942 2940 2939 2938 2937 2936 2935 2934 2933 2932 2931 2931 2930 2929 2928 2927 2926 2925 2924 2923 2922 2922 2922 2922 2923 2924 2925 2925 2926 2926 2927 2928 2929 2931 2933 2934 2936 2936 2937 2938
2989 2987 2985 2983 2981 2979 2977 2976 2974 2972 2970 2969 2967 2965 2963 2961 2959 2957 2956 2954 2952 2951 2950 2948 2947 2946 2944 2943 2941 2940 2938 2937 2936 2935 2934 2933 2932 2931 2930 2929 2928 2928 2927 2926 2925 2924 2923 2922 2921 2921 2920 2920 2920 2921 2921 2922 2923 2923 2924 2924 2925 2926 2927 2929 2931 2933 2934 2935 2935
2987 2985 2983 2981 2979 2977 2975 2973 2971 2970 2968 2966 2964 2963 2961 2959 2957 2955 2953 2952 2950 2949 2948 2946 2945 2943 2942 2941 2939 2937 2936 2935 2934 2932 2931 2931 2930 2929 2928 2927 2926 2926 2925 2924 2923 2922 2921 2920 2919 2919 2918 2918 2918 2918 2919 2920 2921 2921 2921 2922 2923 2923 2924 2926 2927 2929 2931 2932 2933
2985 2983 2981 2978 2976 2975 2973 2971 2969 2968 2966 2964 2962 2960 2958 2957 2955 2953 2951 2950 2948 2947 2946 2944 2943 2941 2940 2939 2937 2936 2934 2933 2932 2931 2930 2929 2928 2927 2926 2926 2925 2924 2923 2922 2921 2920 2919 2918 2917 2917 2917 2916 2916 2916 2917 2917 2918 2918 2918 2919 2920 2921 2922 2924 2925 2925 2927 2929 2930
2983 2981 2979 2976 2974 2972 2971 2969 2967 2966 2964 2962 2960 2958 2956 2954 2952 2951 2949 2947 2946 2945 2944 2942 2941 2940 2938 2936 2935 2934 2932 2931 2930 2929 2928 2927 2926 2925 2924 2924 2923 2922 2921 2921 2920 2919 2918 2917 2916 2915 2915 2915 2915 2914 2914 2915 2915 2915 2916 2917 2918 2919 2920 2922 2923 2923 2924 2926 2927
2981 2979 2977 2975 2972 2971 2968 2967 2965 2963 2961 2960 2957 2956 2954 2952 2950 2949 2947 2945 2944 2943 2941 2940 2939 2938 2936 2935 2933 2932 2931 2929 2928 2927 2926 2925 2925 2924 2923 2922 2921 2921 2920 2919 2918 2917 2916 2915 2914 2914 2913 2913 2913 2913 2913 2913 2912 2913 2914 2915 2916 2917 2918 2921 2922 2922 2923 2925 2926
2980 2977 2975 2973 2971 2969 2966 2965 2963 2961 2959 2957 2955 2953 2952 2950 2948 2946 2945 2943 2942 2941 2940 2938 2937 2936 2935 2933 2931 2930 2929 2928 2927 2926 2925 2924 2923 2922 2921 2920 2920 2919 2918 2917 2916 2915 2914 2913 2913 2912 2912 2911 2911 2911 2911 2911 2911 2911 2912 2913 2914 2915 2916 2918 2919 2921 2922 2923 2924
2978 2976 2974 2971 2969 2967 2965 2963 2961 2959 2957 2955 2953 2951 2950 2948 2946 2945 2943 2941 2940 2939 2938 2936 2935 2934 2933 2931 2930 2929 2928 2927 2926 2924 2923 2922 2921 2921 2920 2919 2918 2917 2917 2916 2915 2914 2913 2912 2911 2911 2910 2910 2910 2909 2909 2909 2910 2910 2911 2912 2913 2914 2915 2915 2916 2918 2920 2921 2921
2976 2974 2972 2970 2968 2966 2964 2961 2959 2957 2955 2954 2951 2950 2948 2946 2944 2942 2941 2939 2938 2937 2936 2935 2934 2932 2931 2930 2929 2928 2926 2926 2924 2923 2922 2921 2920 2919 2918 2917 2917 2916 2915 2914 2913 2912 2911 2911 2910 2909 2909 2908 2908 2907 2907 2908 2908 2909 2910 2911 2912 2913 2914 2914 2914 2915 2917 2918 2919
2975 2972 2971 2969 2966 2964 2962 2960 2958 2956 2954 2952 2950 2948 2946 2944 2942 2941 2939 2937 2936 2935 2934 2933 2932 2931 2930 2928 2927 2926 2925 2924 2923 2922 2921 2920 2919 2918 2917 2916 2916 2915 2914 2913 2912 2911 2910 2909 2908 2908 2907 2907 2907 2906 2906 2906 2907 2907 2908 2910 2911 2912 2912 2913 2912 2913 2914 2916 2917
2973 2971 2969 2967 2965 2963 2961 2959 2956 2955 2952 2951 2948 2946 2945 2943 2941 2939 2937 2936 2934 2933 2932 2931 2930 2929 2928 2927 2926 2925 2924 2923 2922 2921 2920 2919 2918 2917 2916 2915 2915 2914 2912 2911 2911 2910 2909 2908 2907 2906 2906 2906 2906 2905 2905 2906 2906 2906 2907 2908 2909 2910 2911 2911 2911 2912 2913 2914 2915
2971 2969 2967 2965 2963 2961 2959 2957 2955 2953 2951 2949 2947 2945 2944 2942 2940 2938 2936 2934 2933 2931 2930 2929 2928 2927 2926 2926 2925 2924 2923 2922 2921 2920 2919 2918 2917 2916 2915 2915 2914 2913 2911 2910 2910 2909 2908 2907 2906 2906 2905 2905 2905 2904 2904 2905 2905 2906 2906 2907 2908 2909 2909 2909 2910 2911 2912 2913 2914
2970 2968 2966 2964 2961 2959 2957 2955 2953 2951 2950 2948 2946 2944 2942 2941 2939 2937 2935 2933 2931 2930 2928 2927 2927 2926 2925 2924 2924 2923 2922 2921 2920 2919 2918 2917 2916 2916 2915 2914 2913 2912 2910 2909 2910 2909 2907 2906 2905 2905 2904 2904 2903 2903 2903 2904 2904 2904 2905 2906 2906 2906 2907 2907 2908 2909 2911 2912 2914
2969 2967 2964 2962 2960 2958 2956 2954 2952 2950 2948 2947 2945 2943 2941 2939 2937 2936 2934 2931 2930 2928 2926 2925 2925 2925 2924 2923 2922 2921 2921 2920 2919 2918 2917 2916 2916 2915 2914 2913 2912 2911 2909 2908 2909 2908 2907 2906 2905 2904 2903 2903 2902 2902 2902 2902 2902 2903 2903 2904 2904 2905 2905 2905 2906 2907 2909 2910 2912
2968 2966 2963 2961 2958 2956 2954 2952 2950 2949 2947 2945 2943 2941 2940 2938 2936 2935 2933 2931 2928 2926 2925 2924 2923 2923 2922 2921 2921 2920 2919 2919 2918 2917 2916 2916 2915 2915 2914 2913 2912 2910 2908 2907 2907 2907 2906 2906 2905 2903 2902 2901 2901 2901 2901 2901 2901 2901 2901 2902 2902 2903 2903 2904 2904 2905 2907 2908 2910
2967 2965 2962 2960 2957 2955 2953 2951 2949 2947 2946 2944 2942 2940 2938 2936 2935 2933 2931 2930 2928 2925 2923 2922 2921 2921 2921 2920 2919 2918 2918 2917 2916 2916 2915 2915 2914 2914 2913 2913 2911 2910 2908 2906 2906 2906 2905 2905 2905 2903 2902 2901 2900 2900 2899 2899 2899 2899 2900 2900 2901 2901 2902 2902 2903 2904 2905 2906 2907
2966 2964 2961 2959 2956 2954 2952 2950 2947 2946 2944 2942 2940 2938 2936 2935 2933 2931 2930 2929 2926 2924 2922 2920 2919 2919 2919 2918 2918 2917 2916 2916 2915 2914 2914 2913 2913 2913 2912 2912 2911 2910 2908 2905 2905 2904 2904 2905 2904 2903 2902 2901 2900 2899 2899 2898 2898 2898 2898 2899 2899 2900 2900 2901 2901 2902 2903 2904 2905
2965 2963 2960 2958 2956 2953 2951 2948 2946 2944 2942 2940 2938 2936 2935 2933 2931 2930 2928 2927 2925 2923 2921 2919 2918 2917 2917 2917 2916 2916 2915 2914 2914 2913 2912 2912 2912 2911 2911 2910 2910 2909 2907 2904 2903 2902 2902 2905 2904 2903 2902 2901 2900 2899 2899 2898 2898 2897 2897 2897 2898 2898 2899 2899 2900 2901 2901 2902 2904
2964 2961 2959 2957 2954 2952 2950 2947 2945 2942 2940 2938 2936 2934 2932 2931 2929 2928 2926 2925 2923 2921 2919 2918 2916 2916 2915 2915 2914 2914 2913 2913 2912 2911 2911 2911 2910 2910 2910 2909 2908 2907 2906 2905 2901 2900 2902 2903 2903 2902 2901 2900 2900 2899 2898 2898 2897 2897 2897 2897 2897 2897 2897 2898 2899 2899 2900 2901 2902
2962 2960 2958 2956 2953 2951 2948 2946 2944 2941 2939 2936 2934 2932 2930 2929 2927 2926 2925 2923 2921 2920 2918 2916 2915 2914 2914 2913 2912 2912 2911 2911 2911 2910 2910 2909 2909 2909 2908 2908 2907 2905 2905 2904 2901 2900 2901 2901 2901 2900 2900 2899 2899 2898 2898 2897 2897 2897 2897 2896 2896 2896 2896 2897 2897 2898 2899 2900 2901
2961 2959 2956 2954 2952 2950 2947 2945 2942 2940 2937 2935 2932 2930 2928 2926 2925 2924 2922 2921 2920 2918 2916 2915 2914 2913 2912 2911 2910 2910 2909 2909 2909 2909 2908 2908 2908 2908 2907 2906 2904 2903 2902 2901 2900 2899 2899 2899 2898 2898 2899 2898 2898 2898 2897 2897 2896 2896 2896 2896 2896 2896 2896 2896 2896 2897 2897 2898 2899
2960 2958 2955 2953 2951 2948 2946 2943 2941 2938 2936 2933 2931 2928 2926 2924 2923 2921 2920 2919 2918 2916 2915 2913 2912 2911 2910 2909 2908 2908 2907 2907 2907 2907 2907 2906 2906 2906 2906 2905 2902 2901 2899 2898 2898 2898 2898 2896 2896 2896 2897 2897 2897 2897 2896 2896 2896 2896 2895 2895 2895 2895 2895 2895 2895 2896 2896 2897 2897
2958 2956 2954 2951 2949 2947 2944 2942 2939 2937 2934 2931 2929 2926 2924 2922 2921 2919 2918 2916 2915 2914 2913 2911 2911 2910 2909 2908 2907 2906 2906 2906 2906 2906 2905 2905 2905 2905 2904 2903 2902 2900 2898 2897 2898 2897 2897 2896 2895 2895 2895 2895 2896 2896 2895 2895 2895 2895 2894 2894 2894 2894 2894 2894 2894 2895 2895 2896 2896
2957 2955 2952 2950 2948 2945 2943 2940 2938 2935 2932 2930 2927 2925 2922 2920 2918 2917 2915 2914 2913 2912 2911 2910 2909 2908 2907 2906 2905 2905 2904 2904 2904 2904 2903 2903 2903 2903 2903 2902 2901 2900 2898 2898 2899 2897 2895 2895 2894 2893 2892 2893 2893 2893 2894 2894 2893 2893 2893 2893 2893 2893 2893 2893 2893 2894 2894 2895 2895
2956 2954 2951 2949 2946 2944 2941 2939 2936 2933 2931 2928 2925 2922 2920 2918 2916 2915 2913 2912 2911 2909 2908 2907 2906 2906 2905 2904 2903 2903 2903 2902 2902 2902 2902 2902 2901 2901 2901 2901 2901 2900 2899 2898 2898 2895 2893 2894 2893 2891 2891 2891 2891 2891 2891 2891 2892 2892 2891 2891 2892 2892 2892 2892 2892 2893 2893 2894 2894
2955 2952 2950 2948 2945 2943 2940 2937 2935 2932 2929 2926 2923 2921 2918 2916 2914 2913 2911 2910 2909 2907 2906 2905 2904 2904 2903 2902 2901 2901 2901 2901 2901 2901 2901 2900 2900 2901 2901 2900 2899 2899 2898 2897 2896 2894 2892 2892 2891 2890 2889 2889 2889 2889 2889 2889 2890 2890 2890 2890 2890 2890 2890 2891 2891 2891 2892 2892 2893
2954 2951 2949 2946 2944 2941 2939 2936 2934 2931 2928 2925 2922 2919 2917 2915 2912 2911 2909 2908 2906 2906 2904 2903 2902 2902 2901 2901 2900 2900 2899 2899 2899 2899 2899 2899 2899 2899 2899 2899 2898 2898 2897 2896 2894 2894 2893 2891 2889 2887 2887 2887 2887 2887 2887 2887 2887 2887 2888 2888 2888 2888 2888 2889 2889 2890 2890 2891 2891
2952 2950 2948 2945 2943 2941 2938 2935 2932 2930 2927 2924 2921 2918 2916 2913 2911 2909 2907 2906 2905 2904 2903 2902 2901 2900 2900 2899 2899 2898 2897 2897 2897 2897 2897 2897 2898 2898 2898 2898 2898 2897 2896 2896 2894 2894 2893 2892 2888 2886 2885 2885 2885 2885 2885 2885 2885 2885 2885 2886 2886 2886 2886 2887 2887 2888 2889 2889 2890
2951 2949 2947 2944 2942 2940 2937 2934 2932 2929 2926 2923 2920 2917 2915 2912 2910 2908 2906 2904 2903 2902 2901 2900 2899 2899 2898 2898 2897 2896 2896 2895 2895 2895 2896 2896 2896 2896 2897 2897 2897 2896 2895 2895 2895 2893 2892 2893 2888 2885 2884 2883 2883 2884 2884 2884 2884 2883 2883 2883 2883 2884 2884 2885 2885 2886 2886 2887 2888
2951 2948 2946 2943 2941 2939 2936 2934 2931 2929 2926 2923 2920 2917 2914 2911 2909 2907 2905 2903 2902 2901 2900 2899 2898 2897 2896 2896 2896 2895 2894 2894 2893 2893 2894 2894 2895 2895 2895 2896 2896 2895 2895 2894 2894 2893 2891 2890 2888 2886 2883 2882 2882 2882 2882 2882 2882 2882 2882 2882 2882 2882 2882 2882 2883 2883 2884 2885 2886
2950 2947 2945 2943 2940 2938 2936 2934 2931 2929 2926 2923 2920 2917 2915 2912 2909 2906 2904 2903 2901 2900 2899 2898 2897 2896 2896 2895 2894 2893 2892 2892 2892 2892 2892 2892 2893 2894 2894 2894 2894 2894 2894 2893 2893 2892 2891 2889 2889 2886 2882 2882 2881 2881 2881 2881 2881 2881 2881 2881 2881 2881 2880 2881 2881 2881 2882 2883 2883
2949 2947 2945 2942 2940 2938 2936 2934 2931 2929 2926 2923 2921 2918 2915 2912 2909 2907 2905 2903 2901 2899 2898 2897 2896 2895 2895 2894 2893 2892 2891 2891 2891 2891 2891 2891 2891 2892 2892 2892 2893 2893 2893 2893 2892 2891 2890 2890 2889 2886 2881 2881 2881 2881 2881 2881 2881 2881 2880 2880 2880 2880 2879 2879 2879 2880 2880 2881 2881
2948 2946 2944 2942 2940 2937 2936 2933 2931 2929 2926 2924 2921 2918 2916 2913 2910 2908 2905 2903 2901 2900 2898 2897 2896 2895 2894 2893 2892 2891 2891 2890 2890 2890 2890 2889 2890 2891 2891 2891 2891 2891 2891 2891 2891 2891 2890 2890 2890 2885 2881 2880 2880 2880 2880 2880 2880 2880 2880 2880 2879 2879 2879 2879 2879 2879 2879 2879 2879